Weather History for Bloomington, IL

Change the Weather History Date:

Monday, January 7, 2013

  Actual Average Record
Temperature  
Mean Temperature 24 °F -  
Max Temperature 36 °F 23 °F 65 °F (2008)
Min Temperature 12 °F 0 °F -11 °F (2014)
Degree Days  
Heating Degree Days 41    
Moisture  
Dew Point 21 °F    
Average Humidity 85    
Maximum Humidity 96    
Minimum Humidity 70    
Precipitation  
Precipitation 0.00 in - - ()
Sea Level Pressure  
Sea Level Pressure 30.32 in    
Wind  
Wind Speed 12 mph (SSW)    
Max Wind Speed 24 mph    
Max Gust Speed -    
Visibility 9 miles    
Events      
Averages and records for this station are not official NWS values.
T = Trace of Precipitation, MM = Missing Value Source: NWS Daily Summary

Daily Weather History Graph

Daily Weather History Graph

Search for Another Location

Airport:

Trip Planner

Search our weather history database for the weather conditions in past years. The results will help you decide how hot, cold, wet, or windy it might be!

Date:

Astronomy

Jan. 07, 2013 Rise Set
Actual Time 7:18 AM CST 4:45 PM CST
Civil Twilight 6:48 AM CST 5:15 PM CST
Nautical Twilight 6:14 AM CST 5:49 PM CST
Astronomical Twilight 5:41 AM CST 6:22 PM CST
Moon 2:42 AM CST (1/7) 12:56 PM CST (1/7)
Length of Visible Light 10h 27m
Length of Day
9h 26m
Waning Crescent, 22% of the Moon is Illuminated
Jan 7
Waning Crescent
Jan 11
New
Jan 18
First Quarter
Jan 26
Full
Feb 3
Last Quarter

Hourly Weather History & Observations

Time (CST) Temp. Windchill Dew Point Humidity Pressure Visibility Wind Dir Wind Speed Gust Speed Precip Events Conditions
12:56 AM 14.0 °F 5.1 °F 13.1 °F 96% 30.42 in 7.0 mi South 5.8 mph - N/A   Clear
1:56 AM 12.0 °F 0.5 °F 10.0 °F 92% 30.42 in 8.0 mi South 8.1 mph - N/A   Clear
2:56 AM 15.1 °F 4.2 °F 13.1 °F 92% 30.44 in 8.0 mi SSW 8.1 mph - N/A   Clear
3:56 AM 13.1 °F 1.8 °F 11.1 °F 92% 30.43 in 8.0 mi South 8.1 mph - N/A   Clear
4:56 AM 15.1 °F 3.3 °F 13.1 °F 92% 30.43 in 8.0 mi South 9.2 mph - N/A   Clear
5:56 AM 14.0 °F 1.2 °F 12.0 °F 92% 30.43 in 7.0 mi South 10.4 mph - N/A   Clear
6:56 AM 17.1 °F 4.3 °F 15.1 °F 92% 30.43 in 8.0 mi South 11.5 mph - N/A   Clear
7:56 AM 18.1 °F 5.6 °F 16.2 °F 92% 30.42 in 7.0 mi South 11.5 mph - N/A   Clear
9:56 AM 28.0 °F 15.3 °F 24.1 °F 85% 30.40 in 7.0 mi South 18.4 mph - N/A   Clear
10:56 AM 31.1 °F 18.6 °F 26.1 °F 82% 30.37 in 7.0 mi SSW 20.7 mph - N/A   Clear
11:56 AM 32.9 °F 22.0 °F 27.1 °F 79% 30.34 in 8.0 mi SSW 17.3 mph - N/A   Clear
12:56 PM 34.9 °F 22.7 °F 27.1 °F 73% 30.29 in 9.0 mi SSW 24.2 mph - N/A   Clear
1:56 PM 34.9 °F 23.6 °F 28.0 °F 76% 30.27 in 9.0 mi SSW 20.7 mph - N/A   Clear
2:56 PM 36.9 °F 26.5 °F 28.0 °F 70% 30.26 in 10.0 mi SSW 19.6 mph - N/A   Clear
3:56 PM 34.9 °F 24.6 °F 28.0 °F 76% 30.25 in 10.0 mi South 17.3 mph - N/A   Clear
4:56 PM 32.9 °F 23.2 °F 27.1 °F 79% 30.24 in 10.0 mi South 13.8 mph - N/A   Clear
6:56 PM 30.0 °F 19.5 °F 26.1 °F 85% 30.22 in 9.0 mi South 13.8 mph - N/A   Clear
7:56 PM 29.1 °F 18.4 °F 25.2 °F 85% 30.22 in 9.0 mi South 13.8 mph - N/A   Clear
8:56 PM 29.1 °F 18.4 °F 25.2 °F 85% 30.22 in 10.0 mi SSW 13.8 mph - N/A   Clear
9:56 PM 29.1 °F 17.5 °F 25.2 °F 85% 30.19 in 10.0 mi South 16.1 mph - N/A   Clear
10:56 PM 29.1 °F 17.5 °F 25.2 °F 85% 30.20 in 10.0 mi SSW 16.1 mph - N/A   Clear
11:56 PM 31.1 °F 20.1 °F 25.2 °F 79% 30.19 in 10.0 mi SSW 16.1 mph - N/A   Clear